Custer, SD

6:59 AM MDT on March 25, 2017 (GMT -0600)
Custer County

Weather History for KCUT - February, 2015

Change the Weather History Date:

Monday, February 16, 2015

  Actual Average Record
Temperature  
Mean Temperature 24 °F 26 °F  
Max Temperature 31 °F 36 °F 60 °F (2017)
Min Temperature 16 °F 15 °F -20 °F (1993)
Degree Days  
Heating Degree Days 41 39  
Month to date heating degree days 508 643  
Since 1 July heating degree days 4866 5378  
Cooling Degree Days 0 0  
Month to date cooling degree days 0 0  
Year to date cooling degree days 0 0  
Moisture  
Dew Point 14 °F    
Average Humidity 64    
Maximum Humidity 84    
Minimum Humidity 43    
Precipitation  
Precipitation 0.01 in 0.02 in 0.52 in (1991)
Month to date precipitation 0.02 0.31  
Year to date precipitation 0.26 0.64  
Sea Level Pressure  
Sea Level Pressure 30.11 in    
Wind  
Wind Speed 7 mph (WNW)    
Max Wind Speed 21 mph    
Max Gust Speed 29 mph    
Visibility 8 miles    
Events Snow    
T = Trace of Precipitation, MM = Missing Value Source: NWS Daily Summary

Daily Weather History Graph

Daily Weather History Graph

Search for Another Location

Airport or City:

Trip Planner

Search our weather history database for the weather conditions in past years. The results will help you decide how hot, cold, wet, or windy it might be!

Date:

Astronomy

Feb. 16, 2015 Rise Set
Actual Time 6:51 AM MST 5:25 PM MST
Civil Twilight 6:22 AM MST 5:55 PM MST
Nautical Twilight 5:48 AM MST 6:28 PM MST
Astronomical Twilight 5:15 AM MST 7:02 PM MST
Moon 4:51 AM MST (2/16) 3:04 PM MST (2/16)
Length of Visible Light 11h 32m
Length of Day
10h 33m
Waning Crescent, 7% of the Moon is Illuminated
Feb 16
Waning Crescent
Feb 18
New
Feb 25
First Quarter
Mar 5
Full
Mar 13
Last Quarter

Hourly Weather History & Observations

Time (MST) Temp. Windchill Dew Point Humidity Pressure Visibility Wind Dir Wind Speed Gust Speed Precip Events Conditions
12:53 AM 24.1 °F 19.7 °F 17.1 °F 75% 30.12 in 10.0 mi NW 3.5 mph - N/A   Partly Cloudy
1:53 AM 19.9 °F 14.9 °F 15.1 °F 81% 30.15 in 10.0 mi WSW 3.5 mph - N/A   Clear
2:53 AM 19.9 °F 14.9 °F 14.0 °F 78% 30.13 in 10.0 mi West 3.5 mph - N/A   Partly Cloudy
3:53 AM 23.0 °F 18.4 °F 15.1 °F 72% 30.14 in 10.0 mi NW 3.5 mph - N/A   Clear
4:53 AM 21.0 °F 13.4 °F 14.0 °F 74% 30.16 in 10.0 mi West 5.8 mph - N/A   Mostly Cloudy
5:53 AM 21.9 °F 15.7 °F 15.1 °F 75% 30.17 in 10.0 mi NW 4.6 mph - N/A   Mostly Cloudy
6:53 AM 19.9 °F 13.4 °F 14.0 °F 78% 30.18 in 10.0 mi West 4.6 mph - N/A   Mostly Cloudy
7:53 AM 23.0 °F - 16.0 °F 74% 30.18 in 9.0 mi Calm Calm - 0.00 in   Overcast
8:17 AM 23.0 °F - 17.1 °F 78% 30.05 in 10.0 mi Calm Calm - N/A   Mostly Cloudy
8:28 AM 26.1 °F 20.5 °F 18.0 °F 71% 30.05 in 10.0 mi Variable 4.6 mph - N/A   Mostly Cloudy
8:53 AM 27.0 °F 19.5 °F 14.0 °F 58% 30.17 in 10.0 mi NW 6.9 mph 17.3 mph N/A   Clear
9:53 AM 27.0 °F 17.3 °F 17.1 °F 66% 30.16 in 10.0 mi North 10.4 mph 17.3 mph 0.00 in   Overcast
10:53 AM 28.0 °F 18.1 °F 15.1 °F 58% 30.16 in 10.0 mi NNW 11.5 mph 25.3 mph 0.00 in   Mostly Cloudy
11:53 AM 28.9 °F 19.2 °F 12.9 °F 51% 30.14 in 10.0 mi NNW 11.5 mph 25.3 mph 0.00 in   Mostly Cloudy
12:53 PM 30.0 °F 20.0 °F 10.0 °F 43% 30.13 in 10.0 mi North 12.7 mph 20.7 mph 0.00 in   Mostly Cloudy
1:53 PM 27.0 °F 16.7 °F 9.0 °F 47% 30.14 in 10.0 mi North 11.5 mph - N/A   Mostly Cloudy
2:53 PM 30.0 °F 20.0 °F 10.0 °F 43% 30.14 in 10.0 mi West 12.7 mph 23.0 mph N/A   Mostly Cloudy
3:53 PM 28.9 °F 18.6 °F 10.0 °F 45% 30.13 in 10.0 mi NW 12.7 mph 20.7 mph N/A   Overcast
4:03 PM 25.0 °F 12.6 °F 15.1 °F 66% 30.03 in 1.5 mi North 15.0 mph 25.3 mph 0.00 in Snow Light Snow
4:06 PM 23.0 °F 8.7 °F 15.8 °F 74% 30.04 in 0.2 mi North 18.4 mph 29.9 mph N/A Snow Heavy Snow
4:19 PM 21.9 °F 13.4 °F 16.0 °F 78% 30.04 in 1.0 mi Variable 6.9 mph 17.3 mph 0.01 in Snow Light Snow
4:22 PM 21.9 °F 9.8 °F 16.0 °F 78% 30.04 in 3.0 mi NNW 12.7 mph 19.6 mph 0.01 in Snow Light Snow
4:35 PM 21.9 °F 10.4 °F 12.0 °F 66% 30.04 in 10.0 mi NNW 11.5 mph 21.9 mph 0.01 in   Scattered Clouds
4:53 PM 21.9 °F 11.7 °F 10.9 °F 63% 30.19 in 10.0 mi NNW 9.2 mph 17.3 mph 0.01 in   Scattered Clouds
5:53 PM 21.0 °F 12.4 °F 10.9 °F 65% 30.19 in 10.0 mi NNW 6.9 mph - N/A   Scattered Clouds
6:53 PM 19.9 °F 10.1 °F 10.0 °F 65% 30.21 in 10.0 mi NW 8.1 mph - N/A   Partly Cloudy
7:53 PM 17.1 °F 10.0 °F 10.0 °F 74% 30.19 in 10.0 mi West 4.6 mph - N/A   Scattered Clouds
9:53 PM 18.0 °F 8.7 °F 14.0 °F 84% 30.14 in 2.5 mi WSW 6.9 mph - 0.00 in Snow Light Snow
10:08 PM 19.0 °F 12.3 °F 15.1 °F 85% 29.99 in 2.5 mi WSW 4.6 mph - 0.00 in Snow Light Snow
10:30 PM 19.0 °F 13.9 °F 15.1 °F 85% 29.99 in 4.0 mi WSW 3.5 mph - 0.00 in Snow Light Snow
10:42 PM 19.0 °F 13.9 °F 15.1 °F 85% 29.98 in 9.0 mi WSW 3.5 mph - 0.00 in   Overcast
10:53 PM 19.0 °F 12.3 °F 15.1 °F 85% 30.11 in 10.0 mi West 4.6 mph - 0.00 in   Overcast
11:53 PM 19.0 °F 10.0 °F 15.1 °F 85% 30.09 in 3.0 mi WSW 6.9 mph - 0.00 in Snow Light Snow